Simultaneous Nadir Overpasses (SNOs) Predictions

Prediction of SNOs near equator between AQUA and NPP Satellite Orbit:

Table of predicted SNOs near equator for the next 14.0 days since TLE Epoch: 3/18/2022
Index Date (AQUA) Time (AQUA) AQUA Lat,Lon Date (NPP) Time (NPP) NPP Lat,Lon Distance(km) Time Diff (sec)
1 03/19/2022 07:08:55 -29.97, -87.72 03/19/2022 06:58:55 -30.07, -88.49 74.66 600
2 03/19/2022 07:50:50 2.50, 86.20 03/19/2022 07:41:51 2.33, 85.49 81.10 539
3 03/21/2022 23:18:20 -5.01, 33.98 03/21/2022 23:08:40 -4.87, 33.40 65.73 580
4 03/22/2022 00:06:35 0.43,-157.42 03/21/2022 23:58:11 0.27,-158.27 96.20 504
5 03/24/2022 15:34:04 -2.91, 150.36 03/24/2022 15:24:59 -2.75, 149.65 80.94 545
6 03/27/2022 07:01:41 5.35, 98.11 03/27/2022 06:51:55 5.21, 97.54 65.59 586
7 03/27/2022 07:49:48 -0.82, -93.26 03/27/2022 07:41:18 -0.64, -94.11 96.29 510
8 03/29/2022 23:17:22 3.17,-145.49 03/29/2022 23:08:12 3.04,-146.21 81.12 550
9 04/01/2022 14:44:50 -5.65, 162.30 04/01/2022 14:35:00 -5.53, 161.71 66.20 590
10 04/01/2022 15:33:05 1.07, -29.10 04/01/2022 15:24:30 0.88, -29.95 96.69 515
